{"data":{"norad_id":53179,"epoch":"2026-09-19T18:41:28.992192Z","epoch_age_seconds":134563,"freshness":"FRESH","line1":"1 53179U 22083AZ  26262.77880778  .00000019  00000+0  11701-4 0  9993","line2":"2 53179  53.1604 320.7541 0001158  74.0173 286.0957 15.34391808231370","mean_motion":15.34391808,"eccentricity":0.0001158,"inclination_deg":53.1604,"raan_deg":320.7541,"arg_perigee_deg":74.0173,"mean_anomaly_deg":286.0957,"bstar":1.1701e-5,"rev_number":23137,"period_min":93.848259127306,"perigee_km":461.93541654645,"apogee_km":463.51976078519,"semimajor_km":6840.8645886658,"source":"CELESTRAK","updated_at":"2026-09-20T09:00:40.187543Z"}}